Stations météo

Publicité
Cap Bear, France (7749): Température de l'air & dewpoint: 16.11.2018 11:00:00 - 22.11.2018 11:00:00 (CET)Cap Bear, France (7749): Vitesse du vent & gusts: 16.11.2018 11:00:00 - 22.11.2018 11:00:00 (CET)Cap Bear, France (7749): Direction du vent: 16.11.2018 11:00:00 - 22.11.2018 11:00:00 (CET)Cap Bear, France (7749): reduced air pressure: 16.11.2018 11:00:00 - 22.11.2018 11:00:00 (CET)Cap Bear, France (7749): visibility: 16.11.2018 11:00:00 - 22.11.2018 11:00:00 (CET)Cap Bear, France (7749): Quantités de précipitations: 16.11.2018 11:00:00 - 22.11.2018 11:00:00 (CET)
Date & Time tt [°C] td [°C] ff [km/h] ff [knt] fx [km/h] fx [knt] dd ppp [hPa] vv [km] rr [mm]
22.11.2018 11:00:00 11,2 8,2 8 4 14 7 NW 1017,0 - 0,0
22.11.2018 10:00:00 11,3 8,9 11 6 18 10 NW 1016,8 20 0,0
22.11.2018 09:00:00 10,6 8,4 16 8 17 9 NW 1016,1 - 0,0
22.11.2018 08:00:00 10,4 8,0 16 9 27 14 NW 1015,7 - 0,0
22.11.2018 07:00:00 9,9 7,1 25 14 31 17 NW 1015,5 20 0,0
22.11.2018 06:00:00 10,2 7,1 19 11 26 14 NW 1015,4 - 0,0
22.11.2018 05:00:00 10,4 7,3 17 9 24 13 NW 1015,1 - 0,0
22.11.2018 04:00:00 10,4 7,5 20 11 24 13 NW 1015,0 20 0,0
22.11.2018 03:00:00 10,3 7,4 22 12 27 15 WNW 1015,2 - 0,0
22.11.2018 02:00:00 10,6 7,8 22 12 24 13 NW 1014,9 - 0,0
22.11.2018 01:00:00 10,8 8,0 18 10 22 12 NW 1014,9 - 0,0
22.11.2018 00:00:00 11,1 8,3 21 11 24 13 NW 1015,0 - 0,0
21.11.2018 23:00:00 11,1 8,5 22 12 24 13 WNW 1014,7 - 0,0
21.11.2018 22:00:00 11,4 8,6 18 10 23 12 NW 1014,5 - 0,0
21.11.2018 21:00:00 12,3 8,9 4 2 18 10 S 1014,0 - 0,0
21.11.2018 20:00:00 11,8 8,6 11 6 16 9 NW 1013,5 - 0,0
21.11.2018 19:00:00 12,0 8,5 3 2 6 3 NW 1013,1 20 0,0
21.11.2018 18:00:00 12,0 8,3 2 1 6 4 ESE 1012,6 - 0,0
21.11.2018 17:00:00 12,1 8,0 4 2 7 4 SE 1012,2 - 0,0
21.11.2018 16:00:00 12,5 7,8 5 3 10 5 SSE 1011,6 - 0,0
21.11.2018 15:00:00 12,9 8,0 3 2 10 5 ENE 1011,0 - 0,0
21.11.2018 14:00:00 12,5 7,6 3 2 14 7 E 1011,0 - 0,0
21.11.2018 13:00:00 13,2 8,1 8 4 16 9 NE 1010,8 - 0,0
21.11.2018 12:00:00 11,6 6,3 8 4 14 8 N 1010,7 - 0,0
21.11.2018 11:00:00 11,2 5,7 10 5 23 13 NW 1010,5 - 0,0
21.11.2018 10:00:00 9,0 5,9 22 12 29 16 WNW 1010,1 - 0,0
21.11.2018 09:00:00 8,3 6,4 21 12 28 15 NW 1009,3 - 0,0
21.11.2018 08:00:00 8,5 5,8 19 10 33 18 NW 1008,4 - 0,0
21.11.2018 07:00:00 8,1 6,1 24 13 36 19 NW 1007,6 20 0,0
21.11.2018 06:00:00 8,2 5,1 26 14 40 21 NW 1006,6 - 0,0
21.11.2018 05:00:00 8,2 5,0 29 16 44 24 NW 1006,0 - 0,0
21.11.2018 04:00:00 8,0 4,9 29 16 48 26 NW 1005,7 20 0,0
21.11.2018 03:00:00 9,6 5,0 33 18 47 25 NW 1005,0 - 0,0
21.11.2018 02:00:00 9,5 5,1 33 18 49 26 WNW 1004,5 - 0,0
21.11.2018 01:00:00 9,2 5,4 32 17 48 26 NW 1003,8 - 0,0
21.11.2018 00:00:00 9,8 6,0 32 18 49 26 NW 1003,7 - 0,0
20.11.2018 23:00:00 10,3 6,8 32 17 46 25 NW 1003,1 - 0,0
20.11.2018 22:00:00 10,2 7,1 27 15 44 24 NW 1002,5 - 0,0
20.11.2018 21:00:00 9,7 7,3 34 18 48 26 NW 1002,0 - 0,0
20.11.2018 20:00:00 9,5 7,3 36 20 47 26 NW 1001,9 - 0,0
20.11.2018 19:00:00 9,7 7,5 25 13 34 18 NW 1001,4 - 0,0
20.11.2018 18:00:00 9,4 7,3 27 15 39 21 WNW 1001,0 - 0,0
20.11.2018 17:00:00 10,8 8,6 16 9 23 13 NW 1000,8 - 0,0
20.11.2018 16:00:00 10,9 8,6 18 10 29 16 NW 1000,4 15 0,0
20.11.2018 15:00:00 11,9 9,6 6 3 16 9 SE 1000,4 - 0,0
20.11.2018 14:00:00 11,1 8,7 0 0 17 9 N 1000,8 - 0,0
20.11.2018 13:00:00 10,5 8,4 9 5 21 12 NW 1001,5 12 0,0
20.11.2018 12:00:00 9,8 8,1 16 9 26 14 NW 1001,9 - 0,0
20.11.2018 11:00:00 9,3 7,6 20 11 26 14 NW 1002,2 - 0,0
20.11.2018 10:00:00 9,1 7,7 15 8 23 12 NW 1001,8 - 0,0
20.11.2018 09:00:00 8,3 7,1 20 11 34 18 WNW 1001,7 - 0,0
20.11.2018 08:00:00 8,0 6,9 26 14 30 16 NW 1001,2 - 0,0
20.11.2018 07:00:00 7,7 6,5 23 13 30 16 NW 1000,9 15 0,0
20.11.2018 06:00:00 7,9 6,7 22 12 30 16 NW 1000,8 - 0,0
20.11.2018 05:00:00 8,2 7,0 21 11 29 16 NW 1000,7 - 0,0
20.11.2018 04:00:00 8,4 7,2 24 13 31 17 NW 1000,7 15 0,0
20.11.2018 03:00:00 8,1 6,7 24 13 32 18 NW 1000,8 - 0,0
20.11.2018 02:00:00 7,9 6,4 26 14 32 18 NW 1001,1 - 0,0
20.11.2018 01:00:00 8,2 6,7 27 15 38 21 NW 1001,2 - 0,0
20.11.2018 00:00:00 9,1 7,2 29 16 40 22 NNW 1001,2 - 0,0
19.11.2018 23:00:00 9,0 6,6 24 13 38 21 NW 1001,4 - 0,0
19.11.2018 22:00:00 8,8 6,8 29 16 44 24 NW 1001,3 - 0,0
19.11.2018 21:00:00 8,8 6,9 28 15 46 25 NW 1001,4 - 0,0
19.11.2018 20:00:00 8,5 6,6 27 15 42 23 NW 1001,3 - 0,0
19.11.2018 19:00:00 8,3 6,4 29 16 42 23 NW 1001,4 - 0,0
19.11.2018 18:00:00 7,8 6,3 29 16 47 25 NW 1001,6 - 0,0
19.11.2018 17:00:00 7,9 6,7 32 18 40 21 WNW 1001,4 - 0,0
19.11.2018 16:00:00 8,7 7,8 26 14 36 19 WNW 1001,9 - 0,0
19.11.2018 15:00:00 9,0 8,4 29 15 38 20 WNW 1002,0 - 0,0
19.11.2018 14:00:00 9,4 8,9 24 13 31 17 WNW 1002,7 - 0,8
19.11.2018 13:00:00 9,6 9,0 23 12 35 19 NW 1003,6 - 0,2
19.11.2018 12:00:00 9,5 8,9 24 13 35 19 NW 1004,3 - 0,2
19.11.2018 11:00:00 9,8 9,0 23 13 35 19 NW 1005,2 - 0,6
19.11.2018 10:00:00 9,7 8,6 26 14 35 19 WNW 1005,3 - 0,0
19.11.2018 09:00:00 11,4 9,0 9 5 19 11 NW 1005,4 - 0,0
19.11.2018 08:00:00 11,2 8,1 10 6 32 17 NW 1005,7 - 0,0
19.11.2018 07:00:00 11,8 8,1 11 6 26 14 NW 1006,0 - 0,0
19.11.2018 06:00:00 13,1 7,1 14 8 30 16 ESE 1006,2 - 0,0
19.11.2018 05:00:00 13,2 7,0 19 10 34 18 E 1007,0 - 0,0
19.11.2018 04:00:00 13,3 6,6 21 11 36 19 ESE 1007,8 18 0,0
19.11.2018 03:00:00 13,4 7,4 18 10 35 19 ESE 1008,6 - 0,0
19.11.2018 02:00:00 13,4 7,2 18 10 40 22 ESE 1009,0 - 0,0
19.11.2018 01:00:00 13,4 7,2 22 12 38 21 ESE 1009,7 - 0,0
19.11.2018 00:00:00 13,5 7,3 23 13 44 24 SE 1010,8 - 0,0
18.11.2018 23:00:00 13,4 7,6 22 12 40 22 ESE 1011,3 - 0,0
18.11.2018 22:00:00 13,5 7,0 24 13 45 24 ESE 1012,1 - 0,0
18.11.2018 21:00:00 13,7 8,5 26 14 54 29 ESE 1012,4 - 0,0
18.11.2018 20:00:00 13,7 8,5 32 17 56 31 ESE 1012,6 - 0,0
18.11.2018 19:00:00 13,7 8,5 37 20 65 35 SE 1012,5 10 0,0
18.11.2018 18:00:00 13,8 9,2 37 20 68 37 SE 1012,6 - 0,0
18.11.2018 17:00:00 13,7 8,9 39 21 73 40 ESE 1012,5 - 0,0
18.11.2018 16:00:00 13,8 8,6 40 21 78 42 ESE 1012,7 10 0,0
18.11.2018 15:00:00 13,9 9,3 42 23 77 41 ESE 1013,0 - 0,0
18.11.2018 14:00:00 13,9 9,3 46 25 77 42 ESE 1013,2 - 0,0
18.11.2018 13:00:00 13,8 9,0 48 26 79 43 ESE 1013,5 - 0,0
18.11.2018 12:00:00 13,8 9,4 42 23 82 44 ESE 1014,4 - 0,0
18.11.2018 11:00:00 13,8 8,8 45 24 79 42 ESE 1014,8 - 0,0
18.11.2018 10:00:00 13,7 9,1 49 26 80 43 ESE 1014,5 10 0,0
18.11.2018 09:00:00 13,5 9,9 42 23 75 40 ESE 1014,5 - 2,6
18.11.2018 08:00:00 12,7 10,1 56 30 76 41 E 1014,2 - 0,0
18.11.2018 07:00:00 13,0 10,4 49 27 76 41 E 1013,9 - 1,0
18.11.2018 06:00:00 11,7 9,8 44 24 71 38 ESE 1014,2 - 4,5
18.11.2018 05:00:00 11,4 9,8 59 32 81 44 SSE 1014,2 - 5,7
18.11.2018 04:00:00 13,3 9,4 47 26 72 39 ESE 1014,6 - 0,0
18.11.2018 03:00:00 13,1 9,5 42 23 76 41 ESE 1015,3 - 0,4
18.11.2018 02:00:00 13,0 9,6 42 23 73 39 ESE 1015,5 - 0,6
18.11.2018 01:00:00 12,7 9,1 43 23 77 42 ESE 1015,8 - 1,0
18.11.2018 00:00:00 13,3 9,2 45 25 78 42 ESE 1015,8 - 0,6
17.11.2018 23:00:00 13,3 9,2 47 26 77 42 ESE 1015,7 - 2,8
17.11.2018 22:00:00 12,5 9,5 52 28 73 39 E 1016,5 - 0,4
17.11.2018 21:00:00 13,6 8,8 37 20 64 35 ESE 1016,3 - 0,0
17.11.2018 20:00:00 13,6 8,8 37 20 65 35 ESE 1016,3 - 0,6
17.11.2018 19:00:00 13,3 9,5 37 20 63 34 SE 1016,6 - 1,6
17.11.2018 18:00:00 13,4 9,3 41 22 63 34 SE 1016,3 - 2,0
17.11.2018 17:00:00 13,6 9,0 43 23 57 31 SE 1016,6 - 0,2
17.11.2018 16:00:00 14,4 8,3 46 25 60 32 SE 1016,4 12 0,0
17.11.2018 15:00:00 14,3 8,9 49 27 62 33 SE 1016,3 - 0,0
17.11.2018 14:00:00 14,6 9,8 49 26 61 33 SE 1016,9 - 0,0
17.11.2018 13:00:00 14,1 9,3 48 26 59 32 SSE 1017,2 - 0,4
17.11.2018 12:00:00 14,6 9,2 45 24 56 31 SSE 1017,9 - 0,0
17.11.2018 11:00:00 15,3 9,4 46 25 53 29 SSE 1018,2 - 0,0
17.11.2018 10:00:00 15,3 9,2 44 24 51 28 SSE 1018,4 15 0,0
17.11.2018 09:00:00 15,2 9,8 42 23 53 29 SSE 1018,7 - 0,0
17.11.2018 08:00:00 15,2 10,0 44 24 50 27 SSE 1018,4 - 0,0
17.11.2018 07:00:00 15,2 10,4 39 21 48 26 SSE 1018,4 15 0,0
17.11.2018 06:00:00 15,4 10,8 33 18 40 21 SSE 1018,9 - 0,0
17.11.2018 05:00:00 15,5 10,7 32 17 37 20 SSE 1019,3 - 0,0
17.11.2018 04:00:00 15,6 11,0 24 13 35 19 S 1019,9 15 0,0
17.11.2018 03:00:00 15,7 10,7 34 19 41 22 SSE 1020,3 - 0,0
17.11.2018 02:00:00 15,8 11,0 39 21 42 23 SSE 1020,4 - 0,0
17.11.2018 01:00:00 16,0 11,2 35 19 42 23 SSE 1020,5 - 0,0
17.11.2018 00:00:00 15,9 10,0 37 20 40 22 SSE 1020,7 - 0,0
16.11.2018 23:00:00 16,0 12,5 29 15 36 19 S 1020,7 - 0,0
16.11.2018 22:00:00 15,8 12,7 23 12 30 16 S 1020,9 - 0,0
16.11.2018 21:00:00 15,7 12,6 22 12 31 17 S 1020,8 - 0,0
16.11.2018 20:00:00 15,6 12,3 24 13 33 18 S 1020,9 - 0,0
16.11.2018 19:00:00 15,7 12,4 23 13 29 15 S 1020,9 - 0,0
16.11.2018 18:00:00 15,5 12,6 19 11 25 13 S 1020,8 - 0,0
16.11.2018 17:00:00 16,1 13,0 22 12 29 16 SSE 1020,5 - 0,0
16.11.2018 16:00:00 16,4 13,5 28 15 31 17 SSE 1020,9 18 0,0
16.11.2018 15:00:00 16,6 13,3 29 16 34 18 SSE 1020,7 - 0,0
16.11.2018 14:00:00 17,1 13,8 25 14 32 17 S 1021,2 - 0,0
16.11.2018 13:00:00 16,5 14,1 26 14 29 16 SSE 1021,8 - 0,0
16.11.2018 12:00:00 16,1 14,5 12 6 13 7 SE 1022,6 - 0,0
16.11.2018 11:00:00 16,3 14,1 7 4 10 6 SSE 1023,2 - 0,0

tt = Température de l'air
td = dewpoint
ff = Vitesse du vent
fx = gusts
dd = Direction du vent
ppp = reduced air pressure
vv = visibility
rr = Quantités de précipitations

stations d'obs. à proximité